Simultaneous Nadir Overpasses (SNOs) Predictions

Prediction of SNOs between GOES-17 and NOAA-19 Satellite Orbit:

Table of predicted SNOs for the next 14.0 days since TLE Epoch: 3/14/2025
Index Date Time (GOES-17) GOES-17 Lat,Lon NOAA-19 Lat,Lon Distance(km) Time Diff (sec)
1 03/15/2025 04:34:50 -0.03,-104.39 0.25,-103.08 148.71 80
2 03/16/2025 04:22:17 -0.03,-104.39 0.99,-100.03 497.08 80
3 03/17/2025 16:53:37 0.03,-104.42 0.72,-107.57 358.50 80
4 03/18/2025 16:41:03 0.03,-104.42 0.03,-104.51 10.40 80
5 03/19/2025 16:25:48 0.02,-104.42 -0.67,-101.46 338.07 80
6 03/22/2025 04:44:33 -0.02,-104.38 -0.37,-105.93 176.64 80
7 03/23/2025 04:34:38 -0.02,-104.38 0.33,-102.88 171.47 80
8 03/25/2025 16:53:22 0.02,-104.40 0.68,-107.35 335.63 80
9 03/26/2025 16:38:07 0.01,-104.40 0.02,-104.28 13.08 80
10 03/27/2025 16:25:32 0.01,-104.40 -0.71,-101.23 361.09 80
